Showing default

EMISAT, 44078

Orbit data source: Space-Track

EMISAT, 44078 is a payload satellite owned by ISRO (IN) in SSO that was launched on Mon, 01 Apr 2019 UTC via a PSLV-QL launch vehicle from the Sirharikota (SRI). Payload-class satellites include a variety of spacecraft equipped with specific instruments for various scientific and technological missions. These include communications satellites like Starlink; space stations such as the ISS; scientific satellites like the Hubble; Earth observation satellites from companies like Planet Labs, Umbra, and HawkEye 360; GPS; miniature CubeSats for education and research; and military/defense satellites.

Loading next visibility...
Identifier
44078, 2019-018A
Orbit
SSO
Country
Flag of ININ / IND
Related business
Manufacturer
ISRO
Mission
Operational Defense Sigint
Bus & Motor
SSB-2, AOCS
Mass
436 kg wet, ~380 kg dry
Launch date (UTC)
2019-04-01 (7 years ago)
Launch vehicle
PSLV-QL
Launch site
Sirharikota (SRI)
Object type
Payload
Rocket body
Debris
Shape & HBR
Box + 2 Pan, 3.0 m
Radar Cross Section
4.485 m², Large (>1 m²)

Expand to show TLE details & history
Last TLE update: 12 hours ago

TLE from 12 hours ago
0 EMISAT
1 44078U 19018A   25352.59498029  .00000186  00000-0  67809-4 0  9994
2 44078  98.4934  47.1538 0019630  44.1772 316.0981 14.43632507354009
Epoch: 2025-12-18T14:16Z
TLE epoch observation values (Epoch: 2025-12-18T14:16:46.297Z)
Latitude
-0.00007°
Longitude
105.51267°
Altitude
739.41 km
Speed
7.49 km/s
True Right ascension
03h 08m 36s
True Declination
0° 00' 00"
Sunlit
Object was in full shadow at epoch
Visualization orbit readout
Latitude
Unknown
Longitude
Unknown
Altitude
Unknown
Speed
Unknown
Apparent Right ascension
Unknown
Apparent Declination
Unknown
Sunlit
N/A
Visualization observer readout
Local Sidereal Time
00:44:49
Azimuth
Unknown
Elevation
Unknown
Doppler factor
Unknown
Orbital elements
Apogee altitude
757.619 km
Perigee altitude
729.659 km
Semi-major axis
7,121.776 km
Eccentricity
0.00196
Inclination
98.4934°
RAAN
47.1538°
Arg. of periapsis
44.1772°
True anomaly
315.94184°
Mean anomaly
316.0981°
Eccentric anomaly
316.02°
Mean motion
3.61128 °/min
Orbital period
99.69 mins
BSTAR
0.000067809
Loading maneuver chart data...
Computing Atmospheric mass density...

Documentation

Showing up to 5 results
|